Time,TemperatureF,DewpointF,PressureIn,WindDirection,WindDirectionDegrees,WindSpeedMPH,WindSpeedGustMPH,Humidity,HourlyPrecipIn,Conditions,Clouds,dailyrainin,SoftwareType,DateUTC
2013-03-20 00:00:00,60.9,24.8,29.90,ENE,75,0.0,0.0,25,0.00,,,0.00,Wunderground v.1.15,2013-03-20 06:00:00,
2013-03-20 00:10:00,60.6,25.5,29.90,NE,52,0.0,0.0,26,0.00,,,0.00,Wunderground v.1.15,2013-03-20 06:10:00,
2013-03-20 00:15:00,60.5,25.4,29.90,ENE,61,0.0,2.0,26,0.00,,,0.00,Wunderground v.1.15,2013-03-20 06:15:00,
2013-03-20 00:20:00,60.3,25.2,29.91,NE,51,0.0,0.0,26,0.00,,,0.00,Wunderground v.1.15,2013-03-20 06:20:00,
2013-03-20 00:25:00,60.2,24.2,29.91,NE,51,0.0,0.0,25,0.00,,,0.00,Wunderground v.1.15,2013-03-20 06:25:00,
2013-03-20 00:30:00,60.0,25.0,29.91,NE,51,0.0,0.0,26,0.00,,,0.00,Wunderground v.1.15,2013-03-20 06:30:00,
2013-03-20 00:35:00,59.8,24.8,29.91,NE,51,0.0,0.0,26,0.00,,,0.00,Wunderground v.1.15,2013-03-20 06:35:00,
2013-03-20 00:40:00,59.5,24.5,29.91,NE,51,0.0,0.0,26,0.00,,,0.00,Wunderground v.1.15,2013-03-20 06:40:00,
2013-03-20 00:45:00,59.1,24.2,29.91,NE,51,0.0,0.0,26,0.00,,,0.00,Wunderground v.1.15,2013-03-20 06:45:00,
2013-03-20 00:50:00,59.0,24.1,29.91,NE,51,0.0,0.0,26,0.00,,,0.00,Wunderground v.1.15,2013-03-20 06:50:00,
2013-03-20 00:55:00,58.7,23.9,29.91,NE,51,0.0,0.0,26,0.00,,,0.00,Wunderground v.1.15,2013-03-20 06:55:00,
2013-03-20 01:00:00,58.4,23.6,29.91,NE,51,0.0,0.0,26,0.00,,,0.00,Wunderground v.1.15,2013-03-20 07:00:00,
2013-03-20 01:05:00,58.0,23.3,29.90,NE,51,0.0,0.0,26,0.00,,,0.00,Wunderground v.1.15,2013-03-20 07:05:00,
2013-03-20 01:15:00,57.5,23.7,29.90,NE,51,0.0,0.0,27,0.00,,,0.00,Wunderground v.1.15,2013-03-20 07:15:00,
2013-03-20 01:20:00,57.4,23.7,29.91,NE,51,0.0,0.0,27,0.00,,,0.00,Wunderground v.1.15,2013-03-20 07:20:00,
2013-03-20 01:30:00,56.7,23.0,29.91,NE,51,0.0,0.0,27,0.00,,,0.00,Wunderground v.1.15,2013-03-20 07:30:00,
2013-03-20 01:35:00,56.3,22.7,29.91,NE,51,0.0,0.0,27,0.00,,,0.00,Wunderground v.1.15,2013-03-20 07:35:00,
2013-03-20 01:40:00,55.9,22.4,29.92,NE,49,0.0,0.0,27,0.00,,,0.00,Wunderground v.1.15,2013-03-20 07:40:00,
2013-03-20 01:45:00,55.5,22.9,29.92,NE,49,0.0,0.0,28,0.00,,,0.00,Wunderground v.1.15,2013-03-20 07:45:00,
2013-03-20 01:50:00,55.0,22.4,29.93,NE,49,0.0,0.0,28,0.00,,,0.00,Wunderground v.1.15,2013-03-20 07:50:00,
2013-03-20 02:00:00,54.5,22.9,29.93,NE,49,0.0,0.0,29,0.00,,,0.00,Wunderground v.1.15,2013-03-20 08:00:00,
2013-03-20 02:05:00,54.2,22.6,29.93,NE,49,0.0,0.0,29,0.00,,,0.00,Wunderground v.1.15,2013-03-20 08:05:00,
2013-03-20 02:15:00,53.8,22.2,29.93,NE,46,0.0,0.0,29,0.00,,,0.00,Wunderground v.1.15,2013-03-20 08:15:00,
2013-03-20 02:20:00,53.5,22.8,29.93,NE,46,0.0,0.0,30,0.00,,,0.00,Wunderground v.1.15,2013-03-20 08:20:00,
2013-03-20 02:25:00,53.3,22.6,29.93,NE,46,0.0,0.0,30,0.00,,,0.00,Wunderground v.1.15,2013-03-20 08:25:00,
2013-03-20 02:30:00,53.2,22.5,29.93,NE,46,0.0,0.0,30,0.00,,,0.00,Wunderground v.1.15,2013-03-20 08:30:00,
2013-03-20 02:35:00,53.0,22.4,29.93,NE,46,0.0,0.0,30,0.00,,,0.00,Wunderground v.1.15,2013-03-20 08:35:00,
2013-03-20 02:45:00,52.5,21.9,29.93,NE,46,0.0,0.0,30,0.00,,,0.00,Wunderground v.1.15,2013-03-20 08:45:00,
2013-03-20 02:50:00,52.2,21.7,29.94,NE,46,0.0,0.0,30,0.00,,,0.00,Wunderground v.1.15,2013-03-20 08:50:00,
2013-03-20 02:55:00,51.9,22.2,29.95,NE,46,0.0,0.0,31,0.00,,,0.00,Wunderground v.1.15,2013-03-20 08:55:00,
2013-03-20 03:00:00,51.4,21.7,29.95,NE,45,0.0,0.0,31,0.00,,,0.00,Wunderground v.1.15,2013-03-20 09:00:00,
2013-03-20 03:05:00,51.0,21.4,29.95,NE,45,0.0,0.0,31,0.00,,,0.00,Wunderground v.1.15,2013-03-20 09:05:00,
2013-03-20 03:15:00,50.4,22.3,29.94,NE,42,0.0,0.0,33,0.00,,,0.00,Wunderground v.1.15,2013-03-20 09:15:00,
2013-03-20 03:20:00,50.2,22.2,29.94,NNW,342,0.0,0.0,33,0.00,,,0.00,Wunderground v.1.15,2013-03-20 09:20:00,
2013-03-20 03:25:00,50.0,22.7,29.95,NNW,342,0.0,0.0,34,0.00,,,0.00,Wunderground v.1.15,2013-03-20 09:25:00,
2013-03-20 03:30:00,49.8,21.8,29.95,NNW,342,0.0,0.0,33,0.00,,,0.00,Wunderground v.1.15,2013-03-20 09:30:00,
2013-03-20 03:40:00,49.3,21.4,29.95,NNW,344,0.0,0.0,33,0.00,,,0.00,Wunderground v.1.15,2013-03-20 09:40:00,
2013-03-20 03:45:00,49.1,21.2,29.94,NNW,344,0.0,0.0,33,0.00,,,0.00,Wunderground v.1.15,2013-03-20 09:45:00,
2013-03-20 03:55:00,48.7,21.5,29.94,NNW,344,0.0,0.0,34,0.00,,,0.00,Wunderground v.1.15,2013-03-20 09:55:00,
2013-03-20 04:00:00,48.4,21.3,29.94,NNW,344,0.0,0.0,34,0.00,,,0.00,Wunderground v.1.15,2013-03-20 10:00:00,
2013-03-20 04:05:00,48.3,21.9,29.95,NNW,344,0.0,0.0,35,0.00,,,0.00,Wunderground v.1.15,2013-03-20 10:05:00,
2013-03-20 04:15:00,48.1,22.4,29.96,NNW,344,0.0,0.0,36,0.00,,,0.00,Wunderground v.1.15,2013-03-20 10:15:00,
2013-03-20 04:20:00,47.9,21.5,29.96,NNW,344,0.0,0.0,35,0.00,,,0.00,Wunderground v.1.15,2013-03-20 10:20:00,
2013-03-20 04:25:00,47.7,21.3,29.96,NNW,344,0.0,0.0,35,0.00,,,0.00,Wunderground v.1.15,2013-03-20 10:25:00,
2013-03-20 04:30:00,47.5,21.2,29.96,NNW,344,0.0,0.0,35,0.00,,,0.00,Wunderground v.1.15,2013-03-20 10:30:00,
2013-03-20 04:35:00,47.4,21.1,29.96,NNW,344,0.0,0.0,35,0.00,,,0.00,Wunderground v.1.15,2013-03-20 10:35:00,
2013-03-20 04:40:00,47.1,20.8,29.96,NNW,344,0.0,0.0,35,0.00,,,0.00,Wunderground v.1.15,2013-03-20 10:40:00,
2013-03-20 04:45:00,47.0,21.4,29.96,NNW,344,0.0,0.0,36,0.00,,,0.00,Wunderground v.1.15,2013-03-20 10:45:00,
2013-03-20 04:50:00,47.0,21.4,29.96,NNW,344,0.0,0.0,36,0.00,,,0.00,Wunderground v.1.15,2013-03-20 10:50:00,
2013-03-20 04:55:00,46.9,21.3,29.97,NNW,344,0.0,0.0,36,0.00,,,0.00,Wunderground v.1.15,2013-03-20 10:55:00,
2013-03-20 05:05:00,46.7,21.1,29.98,NNW,344,0.0,0.0,36,0.00,,,0.00,Wunderground v.1.15,2013-03-20 11:05:00,
2013-03-20 05:15:00,46.6,21.7,29.98,NNW,344,0.0,0.0,37,0.00,,,0.00,Wunderground v.1.15,2013-03-20 11:15:00,
2013-03-20 05:25:00,46.5,21.6,29.99,NNW,344,0.0,0.0,37,0.00,,,0.00,Wunderground v.1.15,2013-03-20 11:25:00,
2013-03-20 05:30:00,46.4,22.1,30.00,NNW,344,0.0,0.0,38,0.00,,,0.00,Wunderground v.1.15,2013-03-20 11:30:00,
2013-03-20 05:35:00,46.3,22.0,30.00,NNW,344,0.0,0.0,38,0.00,,,0.00,Wunderground v.1.15,2013-03-20 11:35:00,
2013-03-20 05:40:00,46.1,21.9,30.00,NNW,344,0.0,0.0,38,0.00,,,0.00,Wunderground v.1.15,2013-03-20 11:40:00,
2013-03-20 05:45:00,46.1,21.9,30.01,NNW,344,0.0,0.0,38,0.00,,,0.00,Wunderground v.1.15,2013-03-20 11:45:00,
2013-03-20 05:55:00,46.1,21.9,30.01,NNW,344,0.0,0.0,38,0.00,,,0.00,Wunderground v.1.15,2013-03-20 11:55:00,
2013-03-20 06:00:00,46.1,21.9,30.01,NNW,344,0.0,0.0,38,0.00,,,0.00,Wunderground v.1.15,2013-03-20 12:00:00,
2013-03-20 06:05:00,46.2,22.0,30.02,NNW,344,0.0,0.0,38,0.00,,,0.00,Wunderground v.1.15,2013-03-20 12:05:00,
2013-03-20 06:15:00,46.3,22.7,30.03,NNW,344,0.0,0.0,39,0.00,,,0.00,Wunderground v.1.15,2013-03-20 12:15:00,
2013-03-20 06:20:00,46.4,21.5,30.03,NW,311,0.0,0.0,37,0.00,,,0.00,Wunderground v.1.15,2013-03-20 12:20:00,
2013-03-20 06:30:00,46.1,20.6,30.03,NW,318,0.0,0.0,36,0.00,,,0.00,Wunderground v.1.15,2013-03-20 12:30:00,
2013-03-20 06:35:00,46.0,21.1,30.03,NW,318,0.0,0.0,37,0.00,,,0.00,Wunderground v.1.15,2013-03-20 12:35:00,
2013-03-20 06:40:00,45.8,21.0,30.04,NW,318,0.0,0.0,37,0.00,,,0.00,Wunderground v.1.15,2013-03-20 12:40:00,
2013-03-20 06:45:00,45.7,20.9,30.04,NW,318,0.0,0.0,37,0.00,,,0.00,Wunderground v.1.15,2013-03-20 12:45:00,
2013-03-20 06:55:00,45.3,20.5,30.05,NW,318,0.0,0.0,37,0.00,,,0.00,Wunderground v.1.15,2013-03-20 12:55:00,
2013-03-20 07:05:00,45.0,20.9,30.07,NW,318,0.0,0.0,38,0.00,,,0.00,Wunderground v.1.15,2013-03-20 13:05:00,
2013-03-20 07:15:00,44.7,20.6,30.07,NW,318,0.0,0.0,38,0.00,,,0.00,Wunderground v.1.15,2013-03-20 13:15:00,
2013-03-20 07:20:00,44.5,21.0,30.07,NW,318,0.0,0.0,39,0.00,,,0.00,Wunderground v.1.15,2013-03-20 13:20:00,
2013-03-20 07:25:00,44.3,20.9,30.07,NW,318,0.0,0.0,39,0.00,,,0.00,Wunderground v.1.15,2013-03-20 13:25:00,
2013-03-20 07:30:00,44.1,20.7,30.08,NW,318,0.0,0.0,39,0.00,,,0.00,Wunderground v.1.15,2013-03-20 13:30:00,
2013-03-20 07:40:00,43.8,21.0,30.08,NW,318,0.0,0.0,40,0.00,,,0.00,Wunderground v.1.15,2013-03-20 13:40:00,
2013-03-20 07:50:00,43.6,20.8,30.08,NW,318,0.0,0.0,40,0.00,,,0.00,Wunderground v.1.15,2013-03-20 13:50:00,
2013-03-20 07:55:00,43.6,20.8,30.08,NW,318,0.0,0.0,40,0.00,,,0.00,Wunderground v.1.15,2013-03-20 13:55:00,
2013-03-20 08:00:00,43.7,20.9,30.08,NW,318,0.0,0.0,40,0.00,,,0.00,Wunderground v.1.15,2013-03-20 14:00:00,
2013-03-20 08:05:00,43.8,21.0,30.09,NW,318,0.0,0.0,40,0.00,,,0.00,Wunderground v.1.15,2013-03-20 14:05:00,
2013-03-20 08:15:00,44.4,22.1,30.09,NW,318,0.0,0.0,41,0.00,,,0.00,Wunderground v.1.15,2013-03-20 14:15:00,
2013-03-20 08:20:00,45.0,22.7,30.10,NW,318,0.0,0.0,41,0.00,,,0.00,Wunderground v.1.15,2013-03-20 14:20:00,
2013-03-20 08:25:00,45.5,22.5,30.10,NW,313,0.0,0.0,40,0.00,,,0.00,Wunderground v.1.15,2013-03-20 14:25:00,
2013-03-20 08:30:00,46.2,22.6,30.10,NW,311,0.0,0.0,39,0.00,,,0.00,Wunderground v.1.15,2013-03-20 14:30:00,
2013-03-20 08:35:00,46.9,23.2,30.10,NW,311,0.0,0.0,39,0.00,,,0.00,Wunderground v.1.15,2013-03-20 14:35:00,
2013-03-20 08:45:00,48.4,24.6,30.08,NW,311,0.0,0.0,39,0.00,,,0.00,Wunderground v.1.15,2013-03-20 14:45:00,
2013-03-20 08:50:00,49.2,24.6,30.08,NW,311,0.0,0.0,38,0.00,,,0.00,Wunderground v.1.15,2013-03-20 14:50:00,
2013-03-20 08:55:00,50.2,24.9,30.08,NW,321,0.0,0.0,37,0.00,,,0.00,Wunderground v.1.15,2013-03-20 14:55:00,
2013-03-20 09:00:00,51.3,24.5,30.08,NW,324,0.0,0.0,35,0.00,,,0.00,Wunderground v.1.15,2013-03-20 15:00:00,
2013-03-20 09:05:00,52.3,24.7,30.09,NE,55,0.0,0.0,34,0.00,,,0.00,Wunderground v.1.15,2013-03-20 15:05:00,
2013-03-20 09:15:00,53.9,25.4,30.08,East,101,0.0,0.0,33,0.00,,,0.00,Wunderground v.1.15,2013-03-20 15:15:00,
2013-03-20 09:20:00,54.6,26.0,30.07,SSW,202,0.0,0.0,33,0.00,,,0.00,Wunderground v.1.15,2013-03-20 15:20:00,
2013-03-20 09:25:00,55.2,25.8,30.07,SE,132,0.0,3.0,32,0.00,,,0.00,Wunderground v.1.15,2013-03-20 15:25:00,
2013-03-20 09:30:00,55.7,26.3,30.07,SE,128,0.0,0.0,32,0.00,,,0.00,Wunderground v.1.15,2013-03-20 15:30:00,
2013-03-20 09:35:00,56.1,25.8,30.08,ESE,123,0.0,0.0,31,0.00,,,0.00,Wunderground v.1.15,2013-03-20 15:35:00,
2013-03-20 09:45:00,56.6,25.5,30.06,SW,229,0.0,0.0,30,0.00,,,0.00,Wunderground v.1.15,2013-03-20 15:45:00,
2013-03-20 09:55:00,56.9,25.7,30.07,West,259,0.0,0.0,30,0.00,,,0.00,Wunderground v.1.15,2013-03-20 15:55:00,
2013-03-20 10:00:00,57.2,26.0,30.07,WSW,237,0.0,0.0,30,0.00,,,0.00,Wunderground v.1.15,2013-03-20 16:00:00,
2013-03-20 10:05:00,57.5,25.5,30.07,WSW,250,0.0,0.0,29,0.00,,,0.00,Wunderground v.1.15,2013-03-20 16:05:00,
2013-03-20 10:15:00,58.3,26.1,30.06,West,262,0.0,0.0,29,0.00,,,0.00,Wunderground v.1.15,2013-03-20 16:15:00,
2013-03-20 10:20:00,58.9,26.7,30.06,North,360,0.0,0.0,29,0.00,,,0.00,Wunderground v.1.15,2013-03-20 16:20:00,
2013-03-20 10:30:00,60.0,27.6,30.05,WNW,301,0.0,0.0,29,0.00,,,0.00,Wunderground v.1.15,2013-03-20 16:30:00,
2013-03-20 10:35:00,61.0,27.6,30.04,NW,307,0.0,0.0,28,0.00,,,0.00,Wunderground v.1.15,2013-03-20 16:35:00,
2013-03-20 10:45:00,62.2,28.7,30.04,West,271,0.0,0.0,28,0.00,,,0.00,Wunderground v.1.15,2013-03-20 16:45:00,
2013-03-20 10:50:00,62.7,28.2,30.04,West,274,0.0,0.0,27,0.00,,,0.00,Wunderground v.1.15,2013-03-20 16:50:00,
2013-03-20 10:55:00,63.1,29.4,30.03,WNW,286,0.0,1.0,28,0.00,,,0.00,Wunderground v.1.15,2013-03-20 16:55:00,
2013-03-20 11:00:00,63.7,29.1,30.02,South,175,0.0,0.0,27,0.00,,,0.00,Wunderground v.1.15,2013-03-20 17:00:00,
2013-03-20 11:05:00,63.9,29.2,30.03,SW,214,0.0,0.0,27,0.00,,,0.00,Wunderground v.1.15,2013-03-20 17:05:00,
2013-03-20 11:15:00,64.6,29.8,30.02,West,279,0.0,0.0,27,0.00,,,0.00,Wunderground v.1.15,2013-03-20 17:15:00,
2013-03-20 11:20:00,64.8,29.1,30.02,WSW,243,0.0,0.0,26,0.00,,,0.00,Wunderground v.1.15,2013-03-20 17:20:00,
2013-03-20 11:25:00,65.1,30.3,30.01,WNW,303,0.0,0.0,27,0.00,,,0.00,Wunderground v.1.15,2013-03-20 17:25:00,
2013-03-20 11:35:00,65.7,29.8,30.01,SSE,161,0.0,0.0,26,0.00,,,0.00,Wunderground v.1.15,2013-03-20 17:35:00,
2013-03-20 11:40:00,66.3,29.4,30.00,SSE,161,0.0,0.0,25,0.00,,,0.00,Wunderground v.1.15,2013-03-20 17:40:00,
2013-03-20 11:50:00,66.9,29.9,29.98,SE,125,0.0,0.0,25,0.00,,,0.00,Wunderground v.1.15,2013-03-20 17:50:00,
2013-03-20 11:55:00,67.5,29.4,29.98,SE,125,0.0,0.0,24,0.00,,,0.00,Wunderground v.1.15,2013-03-20 17:55:00,
2013-03-20 12:00:00,68.0,29.8,29.98,ESE,113,0.0,0.0,24,0.00,,,0.00,Wunderground v.1.15,2013-03-20 18:00:00,
2013-03-20 12:05:00,68.6,29.3,29.98,ESE,113,0.0,0.0,23,0.00,,,0.00,Wunderground v.1.15,2013-03-20 18:05:00,
2013-03-20 12:15:00,70.4,30.8,29.97,NW,308,0.0,1.0,23,0.00,,,0.00,Wunderground v.1.15,2013-03-20 18:15:00,
2013-03-20 12:20:00,71.0,30.2,29.97,WSW,257,0.0,0.0,22,0.00,,,0.00,Wunderground v.1.15,2013-03-20 18:20:00,
2013-03-20 12:25:00,70.7,28.8,29.96,SE,125,1.0,1.0,21,0.00,,,0.00,Wunderground v.1.15,2013-03-20 18:25:00,
2013-03-20 12:30:00,70.4,29.7,29.95,ESE,107,1.0,5.0,22,0.00,,,0.00,Wunderground v.1.15,2013-03-20 18:30:00,
2013-03-20 12:35:00,70.1,29.5,29.95,ENE,75,1.0,5.0,22,0.00,,,0.00,Wunderground v.1.15,2013-03-20 18:35:00,
2013-03-20 12:45:00,69.7,28.0,29.95,ENE,69,1.0,1.0,21,0.00,,,0.00,Wunderground v.1.15,2013-03-20 18:45:00,
2013-03-20 12:55:00,69.8,28.1,29.93,ESE,106,0.0,1.0,21,0.00,,,0.00,Wunderground v.1.15,2013-03-20 18:55:00,
2013-03-20 13:00:00,69.5,29.0,29.93,ESE,107,1.0,1.0,22,0.00,,,0.00,Wunderground v.1.15,2013-03-20 19:00:00,
2013-03-20 13:05:00,69.3,27.7,29.95,SE,126,1.0,1.0,21,0.00,,,0.00,Wunderground v.1.15,2013-03-20 19:05:00,
2013-03-20 13:15:00,68.8,28.4,29.95,SSE,149,1.0,5.0,22,0.00,,,0.00,Wunderground v.1.15,2013-03-20 19:15:00,
2013-03-20 13:20:00,68.7,28.3,29.95,SE,129,1.0,1.0,22,0.00,,,0.00,Wunderground v.1.15,2013-03-20 19:20:00,
2013-03-20 13:25:00,68.8,29.5,29.94,ESE,102,1.0,1.0,23,0.00,,,0.00,Wunderground v.1.15,2013-03-20 19:25:00,
2013-03-20 13:30:00,69.1,29.7,29.93,ESE,109,1.0,2.0,23,0.00,,,0.00,Wunderground v.1.15,2013-03-20 19:30:00,
2013-03-20 13:35:00,69.2,29.8,29.93,ESE,120,1.0,3.0,23,0.00,,,0.00,Wunderground v.1.15,2013-03-20 19:35:00,
2013-03-20 13:45:00,69.2,29.8,29.93,SE,138,1.0,1.0,23,0.00,,,0.00,Wunderground v.1.15,2013-03-20 19:45:00,
2013-03-20 13:55:00,69.0,30.7,29.92,ESE,113,1.0,1.0,24,0.00,,,0.00,Wunderground v.1.15,2013-03-20 19:55:00,
2013-03-20 14:00:00,69.1,30.8,29.92,SE,146,1.0,3.0,24,0.00,,,0.00,Wunderground v.1.15,2013-03-20 20:00:00,
2013-03-20 14:05:00,69.2,30.8,29.94,East,101,1.0,3.0,24,0.00,,,0.00,Wunderground v.1.15,2013-03-20 20:05:00,
2013-03-20 14:15:00,68.9,30.6,29.92,ESE,119,1.0,3.0,24,0.00,,,0.00,Wunderground v.1.15,2013-03-20 20:15:00,
2013-03-20 14:25:00,69.4,32.0,29.92,SE,130,1.0,1.0,25,0.00,,,0.00,Wunderground v.1.15,2013-03-20 20:25:00,
2013-03-20 14:30:00,69.5,31.1,29.91,SE,142,1.0,5.0,24,0.00,,,0.00,Wunderground v.1.15,2013-03-20 20:30:00,
2013-03-20 14:35:00,69.4,32.0,29.91,SE,140,2.0,9.0,25,0.00,,,0.00,Wunderground v.1.15,2013-03-20 20:35:00,
2013-03-20 14:40:00,69.3,30.9,29.91,ESE,122,2.0,2.0,24,0.00,,,0.00,Wunderground v.1.15,2013-03-20 20:40:00,
2013-03-20 14:50:00,69.2,30.8,29.91,East,82,1.0,1.0,24,0.00,,,0.00,Wunderground v.1.15,2013-03-20 20:50:00,
2013-03-20 15:00:00,69.2,31.9,29.90,SSE,148,0.0,5.0,25,0.00,,,0.00,Wunderground v.1.15,2013-03-20 21:00:00,
2013-03-20 15:05:00,68.8,31.5,29.91,ESE,105,1.0,5.0,25,0.00,,,0.00,Wunderground v.1.15,2013-03-20 21:05:00,
2013-03-20 15:15:00,69.2,31.9,29.90,East,89,0.0,1.0,25,0.00,,,0.00,Wunderground v.1.15,2013-03-20 21:15:00,
2013-03-20 15:20:00,69.2,30.8,29.89,East,96,0.0,0.0,24,0.00,,,0.00,Wunderground v.1.15,2013-03-20 21:20:00,
2013-03-20 15:25:00,69.1,31.8,29.89,SE,140,0.0,0.0,25,0.00,,,0.00,Wunderground v.1.15,2013-03-20 21:25:00,
2013-03-20 15:35:00,68.7,31.4,29.88,SE,134,1.0,2.0,25,0.00,,,0.00,Wunderground v.1.15,2013-03-20 21:35:00,
2013-03-20 15:40:00,68.9,31.6,29.88,ESE,114,0.0,0.0,25,0.00,,,0.00,Wunderground v.1.15,2013-03-20 21:40:00,
2013-03-20 15:45:00,69.0,30.7,29.87,ESE,111,0.0,0.0,24,0.00,,,0.00,Wunderground v.1.15,2013-03-20 21:45:00,
2013-03-20 15:50:00,69.1,31.8,29.87,West,271,0.0,0.0,25,0.00,,,0.00,Wunderground v.1.15,2013-03-20 21:50:00,
2013-03-20 16:00:00,69.5,31.1,29.86,West,263,0.0,4.0,24,0.00,,,0.00,Wunderground v.1.15,2013-03-20 22:00:00,
2013-03-20 16:05:00,69.8,31.4,29.86,SSE,149,1.0,4.0,24,0.00,,,0.00,Wunderground v.1.15,2013-03-20 22:05:00,
2013-03-20 16:15:00,70.1,31.6,29.86,ESE,107,1.0,1.0,24,0.00,,,0.00,Wunderground v.1.15,2013-03-20 22:15:00,
2013-03-20 16:20:00,70.2,31.7,29.86,SE,126,0.0,0.0,24,0.00,,,0.00,Wunderground v.1.15,2013-03-20 22:20:00,
2013-03-20 16:25:00,70.4,30.8,29.86,WSW,240,0.0,0.0,23,0.00,,,0.00,Wunderground v.1.15,2013-03-20 22:25:00,
2013-03-20 16:30:00,70.6,31.0,29.85,East,96,0.0,0.0,23,0.00,,,0.00,Wunderground v.1.15,2013-03-20 22:30:00,
2013-03-20 16:40:00,70.7,31.1,29.84,WNW,288,0.0,2.0,23,0.00,,,0.00,Wunderground v.1.15,2013-03-20 22:40:00,
2013-03-20 16:45:00,70.6,29.9,29.84,ESE,110,1.0,2.0,22,0.00,,,0.00,Wunderground v.1.15,2013-03-20 22:45:00,
2013-03-20 16:50:00,70.6,31.0,29.84,East,84,1.0,1.0,23,0.00,,,0.00,Wunderground v.1.15,2013-03-20 22:50:00,
2013-03-20 16:55:00,70.5,30.9,29.84,ESE,107,0.0,3.0,23,0.00,,,0.00,Wunderground v.1.15,2013-03-20 22:55:00,
2013-03-20 17:05:00,70.5,30.9,29.84,ESE,109,0.0,5.0,23,0.00,,,0.00,Wunderground v.1.15,2013-03-20 23:05:00,
2013-03-20 17:15:00,70.9,31.2,29.85,East,90,1.0,1.0,23,0.00,,,0.00,Wunderground v.1.15,2013-03-20 23:15:00,
2013-03-20 17:20:00,71.0,31.3,29.85,ESE,116,0.0,0.0,23,0.00,,,0.00,Wunderground v.1.15,2013-03-20 23:20:00,
2013-03-20 17:25:00,70.9,31.2,29.84,SSE,160,0.0,0.0,23,0.00,,,0.00,Wunderground v.1.15,2013-03-20 23:25:00,
2013-03-20 17:30:00,70.8,31.1,29.84,ESE,114,0.0,0.0,23,0.00,,,0.00,Wunderground v.1.15,2013-03-20 23:30:00,
2013-03-20 17:35:00,70.6,31.0,29.84,East,101,0.0,0.0,23,0.00,,,0.00,Wunderground v.1.15,2013-03-20 23:35:00,
2013-03-20 17:40:00,70.3,30.7,29.84,ESE,119,0.0,0.0,23,0.00,,,0.00,Wunderground v.1.15,2013-03-20 23:40:00,
2013-03-20 17:50:00,69.9,31.4,29.84,ESE,117,0.0,0.0,24,0.00,,,0.00,Wunderground v.1.15,2013-03-20 23:50:00,
2013-03-20 17:55:00,69.7,31.3,29.83,SE,134,0.0,0.0,24,0.00,,,0.00,Wunderground v.1.15,2013-03-20 23:55:00,
2013-03-20 18:00:00,69.6,31.2,29.83,SE,127,0.0,0.0,24,0.00,,,0.00,Wunderground v.1.15,2013-03-21 00:00:00,
2013-03-20 18:05:00,69.5,31.1,29.84,ENE,75,0.0,0.0,24,0.00,,,0.00,Wunderground v.1.15,2013-03-21 00:05:00,
2013-03-20 18:15:00,69.5,31.1,29.84,ENE,57,0.0,0.0,24,0.00,,,0.00,Wunderground v.1.15,2013-03-21 00:15:00,
2013-03-20 18:25:00,69.5,31.1,29.84,ESE,122,0.0,0.0,24,0.00,,,0.00,Wunderground v.1.15,2013-03-21 00:25:00,
2013-03-20 18:30:00,69.5,31.1,29.84,SE,126,0.0,0.0,24,0.00,,,0.00,Wunderground v.1.15,2013-03-21 00:30:00,
2013-03-20 18:35:00,69.4,31.0,29.83,ESE,119,0.0,0.0,24,0.00,,,0.00,Wunderground v.1.15,2013-03-21 00:35:00,
2013-03-20 18:40:00,69.2,30.8,29.83,East,90,0.0,0.0,24,0.00,,,0.00,Wunderground v.1.15,2013-03-21 00:40:00,
2013-03-20 18:45:00,69.0,30.7,29.83,ESE,120,0.0,0.0,24,0.00,,,0.00,Wunderground v.1.15,2013-03-21 00:45:00,
2013-03-20 18:55:00,68.5,31.3,29.83,ESE,113,0.0,0.0,25,0.00,,,0.00,Wunderground v.1.15,2013-03-21 00:55:00,
2013-03-20 19:00:00,68.2,31.0,29.83,ESE,121,0.0,0.0,25,0.00,,,0.00,Wunderground v.1.15,2013-03-21 01:00:00,
2013-03-20 19:05:00,67.9,30.8,29.84,ESE,121,0.0,0.0,25,0.00,,,0.00,Wunderground v.1.15,2013-03-21 01:05:00,
2013-03-20 19:15:00,67.3,31.2,29.84,ESE,121,0.0,0.0,26,0.00,,,0.00,Wunderground v.1.15,2013-03-21 01:15:00,
2013-03-20 19:20:00,67.1,31.0,29.84,ESE,121,0.0,0.0,26,0.00,,,0.00,Wunderground v.1.15,2013-03-21 01:20:00,
2013-03-20 19:30:00,66.5,30.5,29.84,ESE,121,0.0,0.0,26,0.00,,,0.00,Wunderground v.1.15,2013-03-21 01:30:00,
2013-03-20 19:35:00,66.2,30.3,29.83,ESE,121,0.0,0.0,26,0.00,,,0.00,Wunderground v.1.15,2013-03-21 01:35:00,
2013-03-20 19:40:00,65.9,30.0,29.83,ESE,121,0.0,0.0,26,0.00,,,0.00,Wunderground v.1.15,2013-03-21 01:40:00,
2013-03-20 19:45:00,65.6,30.7,29.83,ESE,121,0.0,0.0,27,0.00,,,0.00,Wunderground v.1.15,2013-03-21 01:45:00,
2013-03-20 19:50:00,65.3,30.4,29.83,ESE,121,0.0,0.0,27,0.00,,,0.00,Wunderground v.1.15,2013-03-21 01:50:00,
2013-03-20 19:55:00,65.1,30.3,29.83,ESE,121,0.0,0.0,27,0.00,,,0.00,Wunderground v.1.15,2013-03-21 01:55:00,
2013-03-20 20:05:00,64.4,29.7,29.80,ESE,121,0.0,0.0,27,0.00,,,0.00,Wunderground v.1.15,2013-03-21 02:05:00,
2013-03-20 20:15:00,63.8,30.0,29.80,SE,125,0.0,0.0,28,0.00,,,0.00,Wunderground v.1.15,2013-03-21 02:15:00,
2013-03-20 20:20:00,63.5,29.8,29.80,SE,126,0.0,0.0,28,0.00,,,0.00,Wunderground v.1.15,2013-03-21 02:20:00,
2013-03-20 20:30:00,63.0,29.4,29.79,SE,133,0.0,0.0,28,0.00,,,0.00,Wunderground v.1.15,2013-03-21 02:30:00,
2013-03-20 20:40:00,62.7,29.1,29.80,SE,133,0.0,0.0,28,0.00,,,0.00,Wunderground v.1.15,2013-03-21 02:40:00,
2013-03-20 20:45:00,62.6,29.0,29.80,SE,133,0.0,0.0,28,0.00,,,0.00,Wunderground v.1.15,2013-03-21 02:45:00,
2013-03-20 20:50:00,62.5,28.9,29.80,SE,133,0.0,0.0,28,0.00,,,0.00,Wunderground v.1.15,2013-03-21 02:50:00,
2013-03-20 20:55:00,62.3,29.6,29.81,SE,133,0.0,0.0,29,0.00,,,0.00,Wunderground v.1.15,2013-03-21 02:55:00,
2013-03-20 21:00:00,62.1,29.4,29.82,SE,133,0.0,0.0,29,0.00,,,0.00,Wunderground v.1.15,2013-03-21 03:00:00,
2013-03-20 21:05:00,61.9,29.3,29.79,SE,133,0.0,0.0,29,0.00,,,0.00,Wunderground v.1.15,2013-03-21 03:05:00,
2013-03-20 21:15:00,61.7,29.1,29.79,SE,133,0.0,0.0,29,0.00,,,0.00,Wunderground v.1.15,2013-03-21 03:15:00,
2013-03-20 21:20:00,61.5,28.9,29.80,SE,133,0.0,0.0,29,0.00,,,0.00,Wunderground v.1.15,2013-03-21 03:20:00,
2013-03-20 21:25:00,61.2,28.7,29.80,SE,133,0.0,0.0,29,0.00,,,0.00,Wunderground v.1.15,2013-03-21 03:25:00,
2013-03-20 21:35:00,60.8,29.1,29.80,SE,133,0.0,0.0,30,0.00,,,0.00,Wunderground v.1.15,2013-03-21 03:35:00,
2013-03-20 21:45:00,60.6,29.0,29.80,SE,133,0.0,0.0,30,0.00,,,0.00,Wunderground v.1.15,2013-03-21 03:45:00,
2013-03-20 21:50:00,60.5,28.9,29.80,SE,133,0.0,0.0,30,0.00,,,0.00,Wunderground v.1.15,2013-03-21 03:50:00,
2013-03-20 21:55:00,60.4,28.8,29.81,SE,133,0.0,0.0,30,0.00,,,0.00,Wunderground v.1.15,2013-03-21 03:55:00,
2013-03-20 22:00:00,60.3,28.7,29.81,SE,133,0.0,0.0,30,0.00,,,0.00,Wunderground v.1.15,2013-03-21 04:00:00,
2013-03-20 22:05:00,60.2,28.6,29.77,SE,133,0.0,0.0,30,0.00,,,0.00,Wunderground v.1.15,2013-03-21 04:05:00,
2013-03-20 22:10:00,60.0,28.4,29.77,SE,133,0.0,0.0,30,0.00,,,0.00,Wunderground v.1.15,2013-03-21 04:10:00,
2013-03-20 22:20:00,59.5,28.0,29.76,SE,133,0.0,0.0,30,0.00,,,0.00,Wunderground v.1.15,2013-03-21 04:20:00,
2013-03-20 22:25:00,59.1,27.7,29.77,SE,133,0.0,0.0,30,0.00,,,0.00,Wunderground v.1.15,2013-03-21 04:25:00,
2013-03-20 22:35:00,58.8,28.2,29.77,SE,133,0.0,0.0,31,0.00,,,0.00,Wunderground v.1.15,2013-03-21 04:35:00,
2013-03-20 22:45:00,58.3,27.8,29.76,SE,133,0.0,0.0,31,0.00,,,0.00,Wunderground v.1.15,2013-03-21 04:45:00,
2013-03-20 22:55:00,57.8,27.3,29.76,SE,133,0.0,0.0,31,0.00,,,0.00,Wunderground v.1.15,2013-03-21 04:55:00,
2013-03-20 23:00:00,57.7,27.2,29.76,SE,133,0.0,0.0,31,0.00,,,0.00,Wunderground v.1.15,2013-03-21 05:00:00,
2013-03-20 23:05:00,57.5,27.1,29.74,SE,133,0.0,0.0,31,0.00,,,0.00,Wunderground v.1.15,2013-03-21 05:05:00,
2013-03-20 23:15:00,57.3,26.9,29.75,SE,133,0.0,0.0,31,0.00,,,0.00,Wunderground v.1.15,2013-03-21 05:15:00,
2013-03-20 23:20:00,57.3,26.9,29.74,SE,133,0.0,0.0,31,0.00,,,0.00,Wunderground v.1.15,2013-03-21 05:20:00,
2013-03-20 23:25:00,57.2,26.8,29.74,SE,133,0.0,0.0,31,0.00,,,0.00,Wunderground v.1.15,2013-03-21 05:25:00,
2013-03-20 23:30:00,57.1,26.7,29.74,SE,133,0.0,0.0,31,0.00,,,0.00,Wunderground v.1.15,2013-03-21 05:30:00,
2013-03-20 23:40:00,56.9,27.3,29.74,SE,132,0.0,0.0,32,0.00,,,0.00,Wunderground v.1.15,2013-03-21 05:40:00,
2013-03-20 23:45:00,56.6,27.0,29.74,SE,133,0.0,0.0,32,0.00,,,0.00,Wunderground v.1.15,2013-03-21 05:45:00,
2013-03-20 23:50:00,56.4,26.9,29.74,SE,132,0.0,0.0,32,0.00,,,0.00,Wunderground v.1.15,2013-03-21 05:50:00,